Калкаман

Казахстан     51°57′11″N   76°01′32″E
темп.,
°C
ветер,
м/с
пор.,
м/с
влажн.,
%
обл.,
%
осадки,
мм/ч
давл.,
гПа
погр.,
м
25 февраля, чт
чт2500:00−23ююз588062 0.0 1017126
03:00−23ююз6138454 0.0 1017252
06:00−23ююз6128247 0.0 1017325
09:00−22юз61383100 0.0 1018865
12:00−20юз101474100 0.0 10181341
15:00−19зюз101476100 0.0 10201586
18:00−21з91386100 0.1 10221173
21:00−23зюз71486100 0.0 1025588
26 февраля, пт
пт2600:00−22з8158899 0.0 1027599
03:00−23зсз5129593 0.1 1030459
06:00−26з6129397 0.1 1033428
09:00−29зюз5119037 0.0 1036302
12:00−24з698861 0.0 1037542
15:00−22з6887100 0.0 1037636
18:00−24з348997 0.0 103835
21:00−27юз348967 0.0 103924
27 февраля, сб
сб2700:00−29зюз458737 0.0 103950
03:00−30юз34870 0.0 103927
06:00−31юз33870 0.0 103920
09:00−30ююз33870 0.0 103933
12:00−23ююз45840 0.0 1038322
15:00−20ю46830 0.0 1036430
18:00−23ююв45890 0.0 103576
21:00−19ююв578693 0.0 1032126
28 февраля, вс
вс2800:00−19ю588469 0.0 103190
03:00−17ю5108356 0.0 1028209
06:00−15ююв6127878 0.0 1025315
09:00−11ю81494100 0.7 1022640
12:00−5ююз91494100 3.8 10171077
15:00−3юз91394100 2.2 10151028
18:00−2юз71492100 4.0 1013953
21:00−2юз51685100 0.1 1012744
1 марта, пн
пн100:000юз91880100 0.1 1012675
03:000юз101886100 0.3 1011865
06:000юз101880100 0.4 1010910
09:00−1юз9188196 0.0 1011600
12:00+1юз8158667 0.0 1011858
15:00+1юз7149389 0.1 1011908
18:000юз7158372 0.1 1011525
21:00−3з6148381 0.8 1013343